Flag for Austria Weather past 2 weeks in Hallein, Salzburg, Austria

Now
57 °F

Passing clouds.


Feels Like: 54 °F
Forecast: 41 / 64 °F
Wind: 14 mph from Northeast

Location: Salzburg-Flughafen


UV Index: 3 (Moderate)

Visibility: N/A


Pressure: 29.65 "Hg

Humidity: 63%

Dew point: 45 °F

Location of HalleinLocation

Historic Weather in Hallein

°F

Hallein temperature yesterday

Maximum temperature yesterday: 61 °F (at 3:50 PM)
Minimum temperature yesterday: 37 °F (at 12:20 AM)
Average temperature yesterday: 48 °F

Past Weeks' High & Low Weather Summary

 TemperatureHumidityPressure
High72 °F (Apr 7, 3:50 PM)100% (Apr 6, 7:20 AM)30.36 "Hg (Apr 6, 7:20 AM)
Low27 °F (Apr 17, 5:20 AM)33% (Apr 7, 3:20 PM)29.65 "Hg (Apr 20, 5:20 PM)
Average48 °F77%30.06 "Hg
* Reported Apr 5 6:20 PM — Apr 20 6:50 PM, Hallein, Weather by CustomWeather, © 2014

Note: Actual official high and low records may vary slightly from our data, if they occured in-between our weather recording intervals... More about our weather records

Advertising

Historic Weather Conditions — Data for Previous 24 hours

 ConditionsComfort  
Time TempWeatherWind HumidityBarometerVisibility
6:50 PM
Apr 20
59 °FPassing clouds.13 mph59%29.65 "HgN/A
6:20 PM59 °FPassing clouds.13 mph59%29.65 "HgN/A
5:50 PM61 °FPassing clouds.13 mph55%29.65 "HgN/A
5:20 PM61 °FPassing clouds.14 mph55%29.65 "HgN/A
4:50 PM61 °FPassing clouds.13 mph55%29.68 "HgN/A
4:20 PM61 °FScattered clouds.15 mph48%29.68 "HgN/A
3:50 PM59 °FScattered clouds.16 mph55%29.68 "HgN/A
3:20 PM59 °FScattered clouds.14 mph55%29.68 "HgN/A
2:50 PM59 °FScattered clouds.14 mph55%29.68 "HgN/A
2:20 PM59 °FScattered clouds.14 mph55%29.71 "HgN/A
1:50 PM59 °FBroken clouds.10 mph63%29.71 "HgN/A
1:20 PM57 °FBroken clouds.12 mph59%29.71 "HgN/A
12:50 PM57 °FBroken clouds.7 mph63%29.71 "HgN/A
12:20 PM57 °FBroken clouds.6 mph72%29.71 "HgN/A
11:50 AM57 °FBroken clouds.7 mph67%29.71 "HgN/A
11:20 AM54 °FBroken clouds.7 mph72%29.74 "HgN/A
10:50 AM52 °FBroken clouds.7 mph82%29.71 "HgN/A
10:20 AM52 °FBroken clouds.3 mph82%29.74 "HgN/A
9:50 AM52 °FBroken clouds.5 mph82%29.71 "HgN/A
9:20 AM50 °FBroken clouds.1 mph88%29.71 "HgN/A
8:50 AM50 °FBroken clouds.5 mph88%29.71 "HgN/A
8:20 AM48 °FBroken clouds.5 mph94%29.71 "HgN/A
7:50 AM48 °FPartly sunny.6 mph87%29.71 "HgN/A
7:20 AM48 °FScattered clouds.6 mph94%29.71 "HgN/A
6:50 AM48 °FPassing clouds.8 mph87%29.71 "HgN/A
6:20 AM48 °FPartly cloudy.5 mph87%29.71 "HgN/A
5:50 AM50 °FPartly cloudy.7 mph88%29.71 "Hg5 mi
5:20 AM50 °FFog.7 mph94%29.68 "Hg3 mi
4:50 AM50 °FDrizzle. Fog.5 mph94%29.71 "Hg2 mi
4:20 AM50 °FLight rain. Fog.2 mph94%29.71 "Hg3 mi
3:50 AM50 °FPassing clouds.1 mph94%29.71 "Hg4 mi
3:20 AM48 °FDrizzle. Fog.1 mph100%29.71 "Hg4 mi
2:50 AM50 °FPassing clouds.1 mph94%29.71 "Hg5 mi
2:20 AM50 °FPassing clouds.1 mph94%29.71 "Hg5 mi
1:50 AM50 °FPartly cloudy.2 mph94%29.74 "Hg4 mi
1:20 AM50 °FPartly cloudy.1 mph94%29.74 "Hg4 mi
12:50 AM50 °FPassing clouds.1 mph94%29.74 "Hg6 mi
12:20 AM50 °FPassing clouds.2 mph94%29.77 "HgN/A
11:50 PM
Apr 19
52 °FSprinkles. Overcast.2 mph88%29.77 "HgN/A
11:20 PM52 °FLight rain. Partly cloudy.3 mph88%29.77 "HgN/A
10:50 PM54 °FPartly cloudy.1 mph77%29.77 "HgN/A
10:20 PM55 °FPartly cloudy.6 mph67%29.77 "HgN/A
9:50 PM54 °FLight rain. Partly cloudy.2 mph77%29.77 "HgN/A
9:20 PM54 °FPassing clouds.2 mph77%29.77 "HgN/A
8:50 PM54 °FPartly sunny.5 mph77%29.77 "HgN/A
8:20 PM54 °FPartly sunny.5 mph77%29.77 "HgN/A
7:50 PM57 °FPartly sunny.3 mph63%29.77 "HgN/A
7:20 PM57 °FScattered clouds.8 mph63%29.77 "HgN/A
Weather by CustomWeather, © 2014

See weather overview